This demonstration page uses our WeatherBlox Daily Observations layout. Learn more.

Left ArrowRight Arrow

38.89511, -77.03637

Hourly Observations for June 27, 2022

Temp ( °F °C ) Dew Point ( °F °C ) Humidity (%) Winds ( mph kmh ) Pressure ( in mb ) Visibility ( mi km ) Precip ( " mm )
12:52 am 00:52 Cloudy 77 25 68 20 74 74 S 10 17 30.02 1017 10 16 0.00 0.00
1:52 am 01:52 Cloudy 76 24.4 69 20.6 79 79 S 10 17 30.00 1016 10 16 0.00 0.00
2:52 am 02:52 Cloudy 76 24.4 69 20.6 79 79 S 16 26 29.98 1015 10 16 0.00 0.00
3:52 am 03:52 Mostly Cloudy 75 23.9 68 20 79 79 SSW 9 15 29.97 1015 10 16 0.00 0.00
4:52 am 04:52 Cloudy 75 23.9 66 18.9 74 74 S 10 17 29.97 1015 10 16 0.00 0.00
5:52 am 05:52 Cloudy 75 23.9 65 18.3 71 71 SSW 10 17 29.97 1015 10 16 0.00 0.00
6:52 am 06:52 Cloudy 75 23.9 66 18.9 74 74 S 10 17 29.97 1015 10 16 0.00 0.00
7:52 am 07:52 Cloudy 76 24.4 67 19.4 74 74 SSW 9 15 29.98 1015 10 16 0.00 0.00
8:52 am 08:52 Mostly Cloudy 78 25.6 69 20.6 74 74 S 9 15 29.98 1015 10 16 0.00 0.00
9:52 am 09:52 Cloudy 78 25.6 68 20 71 71 SSW 7 11 29.99 1016 10 16 0.00 0.00
10:52 am 10:52 Cloudy 79 26.1 70 21.1 74 74 VRB 3 6 29.99 1016 10 16 0.00 0.00
11:31 am 11:31 Cloudy 80 26.7 69 20.6 69 69 WNW 10 17 30.00 1016 10 16 0.00 0.00
11:52 am 11:52 Cloudy 80 26.7 69 20.6 69 69 W 9 15 30.00 1016 10 16 0.00 0.00
11:59 am 11:59 Cloudy 79 26.1 69 20.6 72 72 WNW 10 17 30.00 1016 10 16 0.00 0.00
12:22 pm 12:22 Cloudy with Light Rain 78 25.6 69 20.6 74 74 WNW 13 20 30.01 1016 5 8 0.00 0.00
12:29 pm 12:29 Cloudy with Rain 76 24.4 70 21.1 82 82 W 12 19 30.01 1016 2 2 0.02 0.51
12:38 pm 12:38 Cloudy with Heavy Rain 75 23.9 70 21.1 84 84 W 7 11 30.01 1016 3 4 0.09 2.29
12:44 pm 12:44 Cloudy with Light Rain 75 23.9 71 21.7 88 88 W 7 11 30.01 1016 4 6 0.14 3.56
12:52 pm 12:52 Cloudy with Light Rain 74 23.3 69 20.6 85 85 WNW 13 20 30.01 1016 4 6 0.14 3.56
1:52 pm 13:52 Cloudy with Light Rain 74 23.3 68 20 82 82 NW 6 9 30.00 1016 6 10 0.06 1.52
2:52 pm 14:52 Cloudy 79 26.1 66 18.9 65 65 NW 12 19 29.98 1015 10 16 0.01 0.25
3:52 pm 15:52 Mostly Cloudy 78 25.6 64 17.8 62 62 NW 12 19 29.98 1015 10 16 0.00 0.00
4:52 pm 16:52 Mostly Cloudy 81 27.2 63 17.2 54 54 NNW 6 9 29.98 1015 10 16 0.00 0.00
5:52 pm 17:52 Partly Cloudy 82 27.8 61 16.1 49 49 NW 10 17 29.97 1015 10 16 0.00 0.00
6:52 pm 18:52 Partly Cloudy 82 27.8 60 15.6 47 47 NW 10 17 29.99 1016 10 16 0.00 0.00
7:52 pm 19:52 Mostly Cloudy 80 26.7 61 16.1 52 52 N 6 9 30.01 1016 10 16 0.00 0.00
8:52 pm 20:52 Mostly Cloudy 79 26.1 60 15.6 52 52 NW 6 9 30.02 1017 10 16 0.00 0.00
9:52 pm 21:52 Partly Cloudy 78 25.6 61 16.1 56 56 NW 7 11 30.04 1017 10 16 0.00 0.00
10:52 pm 22:52 Mostly Clear 75 23.9 55 12.8 50 50 NW 14 22 30.05 1018 10 16 0.00 0.00
11:52 pm 23:52 Clear 73 22.8 53 11.7 50 50 NNW 9 15 30.07 1018 10 16 0.00 0.00

Powered by AerisWeather